This demonstration page uses our WeatherBlox Daily Observations layout. Learn more.

41.55636, -103.73856

Hourly Observations for January 22, 2018

Temp ( °F °C ) Dew Point ( °F °C ) Humidity (%) Winds ( mph kmh ) Pressure ( in mb ) Visibility ( mi km ) Precip ( " mm )
12:53 am 00:53 Cloudy 26 -3.3 19 -7.2 75 75 NNW 18 30 30 1016 10 16.09344 0 0
1:53 am 01:53 Clear 26 -3.3 17 -8.3 69 69 NNW 20 31 30.03 1017 10 16.09344 0 0
2:53 am 02:53 Clear 26 -3.3 17 -8.3 69 69 NW 16 26 30.03 1017 10 16.09344 0 0
3:53 am 03:53 Clear 23 -5 15 -9.4 72 72 WNW 13 20 30.06 1018 10 16.09344 0 0
4:53 am 04:53 Clear 19 -7.2 12 -11.1 74 74 W 14 22 30.09 1019 10 16.09344 0 0
5:53 am 05:53 Clear 19 -7.2 11 -11.7 71 71 WNW 15 24 30.09 1019 10 16.09344 0 0
6:53 am 06:53 Clear 18 -7.8 9 -12.8 68 68 WNW 12 19 30.12 1020 10 16.09344 0 0
7:53 am 07:53 Sunny 16 -8.9 8 -13.3 71 71 WNW 13 20 30.12 1020 10 16.09344 0 0
8:53 am 08:53 Sunny 18 -7.8 8 -13.3 65 65 WNW 10 17 30.12 1020 10 16.09344 0 0
9:53 am 09:53 Sunny 21 -6.1 11 -11.7 65 65 WNW 10 17 30.12 1020 10 16.09344 0 0
10:53 am 10:53 Sunny 25 -3.9 13 -10.6 60 60 WNW 15 24 30.09 1019 10 16.09344 0 0
11:53 am 11:53 Sunny 27 -2.8 15 -9.4 61 61 WNW 16 26 30.09 1019 10 16.09344 0 0
12:53 pm 12:53 Sunny 30 -1.1 17 -8.3 58 58 WNW 18 30 30.06 1018 10 16.09344 0 0
1:53 pm 13:53 Sunny 31 -0.6 18 -7.8 59 59 WNW 20 31 30.06 1018 10 16.09344 0 0
2:53 pm 14:53 Sunny 32 0 19 -7.2 59 59 WNW 18 30 30.06 1018 10 16.09344 0 0
3:53 pm 15:53 Sunny 31 -0.6 19 -7.2 61 61 WNW 18 30 30.09 1019 10 16.09344 0 0
4:53 pm 16:53 Sunny 28 -2.2 18 -7.8 66 66 NW 12 19 30.15 1021 10 16.09344 0 0
5:53 pm 17:53 Clear 26 -3.3 17 -8.3 69 69 WNW 14 22 30.15 1021 10 16.09344 0 0
6:53 pm 18:53 Clear 22 -5.6 15 -9.4 75 75 WNW 13 20 30.18 1022 10 16.09344 0 0
7:53 pm 19:53 Clear 22 -5.6 14 -10 71 71 NW 14 22 30.21 1023 10 16.09344 0 0
8:53 pm 20:53 Clear 20 -6.7 13 -10.6 74 74 W 7 11 30.21 1023 10 16.09344 0 0
9:53 pm 21:53 Clear 21 -6.1 13 -10.6 71 71 WNW 12 19 30.21 1023 10 16.09344 0 0
10:53 pm 22:53 Clear 23 -5 15 -9.4 72 72 W 15 24 30.21 1023 10 16.09344 0 0
11:53 pm 23:53 Mostly Cloudy 25 -3.9 17 -8.3 72 72 W 9 15 30.21 1023 10 16.09344 0 0

Powered by AerisWeather